{"data":{"norad_id":62066,"epoch":"2026-05-25T03:41:49.354944Z","epoch_age_seconds":71794,"freshness":"FRESH","line1":"1 62066U 24217K   26145.15404346  .00159747  00000+0  12956-2 0  9998","line2":"2 62066  53.1588  54.2771 0000756  88.0600 272.0505 15.69758892 87183","mean_motion":15.69758892,"eccentricity":7.56e-5,"inclination_deg":53.1588,"raan_deg":54.2771,"arg_perigee_deg":88.06,"mean_anomaly_deg":272.0505,"bstar":0.0012956,"rev_number":8718,"period_min":91.733832968789,"perigee_km":359.07747193945,"apogee_km":360.09621578464,"semimajor_km":6737.723843862,"source":"CELESTRAK","updated_at":"2026-05-25T13:38:19.531558Z"}}